Cavern City Air Terminal Carlsbad US
ICAO: KCNM
IATA: CNM
Category: Medium
Scheduled Services: Yes

Elevation: 3295 ft
TransAlt. 18000 ft.

Airport Communications:
ASOS:118.375
ALBUQUERQUE CNTR:135.875
ALBUQUERQUE RDO:122.65
CTAF/UNICOM:122.95

KCNM Zoom In..

If you have problems with the map follow the link
https://www.worldairports.se/pages/airport.php?
ICAO=KCNM

Runways:

(A) RW 03 length 7854 ft width 150 ft
ILS 111.90 / hdg 34

(B) RW 08 length 5334 ft width 75 ft
---- / hdg 80

(C) RW 14L length 4616 ft width 150 ft
---- / hdg 146

(D) RW 14R length 5837 ft width 100 ft
---- / hdg 144

(E) RW 21 length 7854 ft width 150 ft
---- / hdg 214

(F) RW 26 length 5334 ft width 75 ft
---- / hdg 260

(G) RW 32L length 5837 ft width 100 ft
---- / hdg 324

(H) RW 32R length 4616 ft width 150 ft
---- / hdg 326

Location; KCNM
Day. 16 / Time. 01.53 Zulu
* Altimeter: 29.73
* Temperature: 19° c. 66.2°f.
* Wind from: 240° Speed 15 kn with Gusts up to 27 kn.
Dewpoint: -03° c.
Visibility: 10 Statute Miles.
Clouds: Clear (automated report).

KCNM 160153Z AUTO 24015G27KT 10SM CLR 19/M03 A2973 RMK AO2 PK WND 23028/0106 SLP026 T01941033 $


Wind From 240°
Speed 15 kn.

 
 
jpsmedia worldairports.se 2019   terms of use